Vertical_Velocity
-1 0 -1 -1 -2 -2 -1 -1 -1 -1 -1 -1 -2 -2 -1 -1 -1 -1 0 -0 -1 0 0 0 -2 -1 -1 -0 -1 -0 -2 -2 -2 -2 -1 0 -1 -1 -0 -1 -1 -2 -2
-1 -2 -2 -1 2 0 1 -2 -1 -2 -1 1 -1 -1 -2 -1 -0 -0 -1 -1 -0 2 1 0 1 1 -0 -1 -2 -1 -0 -0 -1 -1 -0 -0 -0 -1 -1 -1 -1 -2 -2
-0 -2 -2 -0 1 -3 -2 -1 -0 1 -2 -2 -2 -1 -3 -1 -0 0 0 0 -0 -2 -2 0 -0 -1 -0 -0 -1 1 -0 -0 -1 -1 -1 -1 -1 -1 -1 -2 -0 -0 -1
-1 -3 -3 -1 -2 -2 -2 -2 -3 -1 1 -0 -1 -0 -0 -1 -2 -1 0 0 -1 -2 -2 -2 -1 -0 -1 -2 -3 -2 -1 -1 -0 -1 -2 -1 -2 0 -0 -0 0 -0 -0
-1 -0 -1 -1 -3 -1 -1 -1 -2 -1 -2 -0 0 -0 -0 -1 -1 -0 -1 -1 -0 -0 -1 -2 -2 -1 -1 -1 -2 -0 -2 -2 0 -2 -1 0 0 -2 -1 -1 -2 -1 -1
-0 -0 0 1 -1 -1 -1 -1 -0 -0 -1 -1 -2 0 -0 -1 -1 -0 -1 -0 -0 -1 -2 -1 -2 -2 -1 -0 -1 -0 -0 -2 -0 -1 -2 -1 -1 1 0 -1 -0 0 -1
-2 -0 -0 0 1 -1 1 -0 -1 -2 -1 -2 -2 -1 -2 0 0 -0 -0 -1 -1 -2 1 -1 0 2 1 2 1 -1 1 2 0 1 -1 -1 -1 -2 -1 -1 -1 -1 -1
-1 -0 0 2 -0 -0 -2 -1 -1 -1 -0 -0 1 0 -1 -1 -0 -2 1 -0 0 0 -0 1 2 3 2 0 1 -1 2 0 1 0 2 1 -0 -1 -1 -2 -1 -0 -1
0 -1 -2 0 1 1 -0 -0 -2 0 -1 -1 -1 0 -0 0 0 1 2 -1 1 0 -0 -0 2 1 -0 2 2 1 0 0 -0 2 0 1 -0 -1 -1 0 -0 -1 -1
1 0 3 0 1 1 0 0 -1 -1 -1 0 -0 -0 0 1 1 -1 0 1 -0 -2 -1 -1 -1 -1 -1 1 -1 -1 0 0 -0 -0 1 0 2 1 2 0 -0 0 -1
-1 -2 -3 -1 -1 -2 -1 -1 -1 -1 -0 1 1 0 1 -1 -2 -2 -2 -1 -2 -0 -2 -2 -1 0 -1 0 -1 -2 -1 -0 -1 -1 -0 -1 -2 -2 -1 -1 -0 -0 -0
1 0 1 -0 -0 2 3 4 1 2 1 0 -0 -1 -1 -1 -2 -3 -2 -1 -1 1 -1 -2 -3 -2 -1 -2 -2 -1 0 -1 -2 0 -1 0 0 0 -1 -1 -2 -1 -1
2 -0 -1 1 0 -0 0 0 0 -1 1 0 -1 -1 0 -0 1 0 -0 -1 -1 -1 -1 1 -0 -1 -1 -0 3 1 -0 1 1 1 2 0 -1 -1 0 1 0 -1 -0
1 1 -1 -1 -0 -1 0 1 2 2 0 -1 -1 -1 0 2 -1 -1 1 0 1 -0 1 1 0 -1 -1 -1 -1 0 0 -2 -2 -3 -3 -1 -2 0 1 0 1 1 1
1 1 0 -1 0 0 -1 -0 -0 0 0 2 3 3 -0 -1 -1 -2 -2 0 -1 -0 -0 -1 0 0 0 -2 -2 -2 -1 -2 -1 -2 -1 -1 -0 -0 0 -1 -1 -1 -0
0 1 -1 -3 -2 2 4 2 -0 -1 -1 -1 -0 -1 -1 -1 -1 -2 -3 -1 -3 -3 -4 -2 1 0 1 1 -1 -1 -2 -1 -1 -1 1 -0 -1 -0 -1 -0 1 0 0
0 2 2 2 1 -1 -1 -1 0 0 -1 -1 -1 -0 0 -0 -1 -0 0 0 1 1 1 1 0 1 1 2 1 -1 -1 -1 -1 -1 -3 -1 -0 -0 1 2 -0 -1 -0
0 -1 -1 1 2 1 1 1 -0 -1 -2 -2 -1 0 -1 -0 1 0 0 1 -1 -1 -2 -3 -3 -3 -3 -4 -4 -3 -2 -2 -2 1 0 -1 -2 -0 1 -0 0 0 -1
1 -2 -2 -2 -1 -0 0 1 -1 -1 -2 -1 -2 -0 1 -1 1 1 0 1 1 1 0 -1 -1 0 0 0 0 0 -0 -0 -1 -2 -2 -2 -3 -2 -2 -1 -1 -1 -1
-0 3 1 -2 -3 -2 -4 -2 0 2 0 -0 1 -2 -2 0 -0 -0 -0 -0 -0 -1 -1 0 -0 -1 -1 -1 -1 -2 -1 -1 -0 -0 -1 -2 -1 -0 0 2 1 -1 -1
1 -3 -1 1 0 -2 -1 -1 -2 -3 -0 -3 -2 -3 -2 -1 -1 -1 -1 -1 -0 -0 -0 -0 -1 -2 -2 -2 -1 -1 -2 -1 -0 -0 -0 -1 -0 1 -1 -3 0 0 0
0 1 -0 -2 -0 0 -1 -1 -1 -0 -2 -1 -2 -3 -0 2 2 2 0 -1 -1 -1 -1 -0 -1 -0 -0 -1 -1 -2 -1 -0 -2 -2 -2 -1 1 -0 -2 -1 -1 -0 1
-2 -1 0 -0 -1 -0 1 2 0 1 -1 1 2 2 3 0 -1 -1 0 -0 -1 -0 -0 -1 -0 0 -1 0 -1 -1 -2 -2 -2 -2 -3 -2 -3 -3 -3 -0 -0 -1 -0
3 2 2 3 3 2 -2 -2 -0 1 1 -1 -0 -0 1 0 -0 -0 1 1 1 1 1 1 0 -1 0 0 1 -1 -2 0 -2 3 -1 -2 -0 -2 -2 3 2 -0 0
1 1 1 1 2 4 3 -1 -1 -2 -2 0 2 3 1 -0 -0 1 1 -0 -0 2 2 1 2 2 1 -0 1 -2 -2 -3 -4 -4 5 -3 2 -5 -3 -0 1 1 -0
0 -0 -0 0 0 0 1 0 -1 -1 -1 -1 -1 0 1 1 -0 -1 -1 0 0 1 1 0 -1 -1 -3 -0 1 1 -0 -0 -3 -4 -1 -4 4 -1 -5 -5 -1 0 -1
Height
5850 5851 5850 5850 5849 5848 5847 5845 5842 5840 5838 5835 5833 5831 5830 5829 5829 5831 5832 5834 5837 5839 5841 5843 5844 5846 5847 5847 5848 5848 5848 5848 5848 5848 5847 5846 5846 5845 5845 5845 5844 5844 5844
5854 5854 5853 5852 5851 5850 5849 5848 5846 5844 5842 5840 5838 5835 5833 5831 5831 5831 5832 5833 5835 5837 5840 5842 5844 5845 5847 5847 5847 5847 5847 5847 5847 5846 5845 5845 5844 5844 5844 5843 5843 5843 5843
5858 5857 5856 5856 5855 5853 5852 5850 5849 5848 5846 5845 5842 5840 5838 5836 5834 5833 5833 5834 5836 5838 5840 5842 5844 5845 5846 5846 5845 5846 5846 5846 5845 5845 5844 5843 5842 5842 5842 5842 5842 5841 5840
5860 5859 5858 5858 5857 5856 5855 5853 5852 5851 5849 5848 5846 5844 5842 5840 5838 5836 5835 5835 5836 5838 5840 5841 5843 5844 5846 5846 5845 5845 5845 5845 5845 5844 5843 5842 5841 5841 5841 5840 5840 5839 5838
5861 5860 5860 5859 5858 5858 5857 5856 5855 5853 5852 5851 5849 5848 5847 5845 5843 5841 5839 5838 5837 5838 5840 5842 5843 5845 5845 5845 5845 5845 5844 5844 5844 5843 5842 5840 5840 5840 5840 5839 5839 5839 5838
5861 5861 5861 5860 5860 5859 5859 5858 5857 5856 5855 5854 5853 5852 5851 5850 5849 5847 5845 5843 5842 5842 5842 5843 5844 5845 5845 5845 5844 5845 5844 5844 5843 5843 5842 5841 5841 5840 5839 5839 5838 5838 5837
5862 5861 5862 5861 5862 5861 5860 5859 5858 5858 5857 5856 5855 5855 5854 5853 5852 5851 5850 5849 5848 5847 5846 5846 5846 5847 5847 5847 5847 5846 5846 5845 5844 5844 5843 5842 5842 5841 5840 5840 5839 5838 5838
5862 5861 5862 5862 5862 5861 5861 5860 5860 5859 5858 5857 5857 5856 5856 5855 5854 5854 5853 5852 5852 5851 5850 5850 5850 5850 5849 5849 5849 5848 5847 5847 5846 5846 5845 5843 5842 5841 5841 5840 5839 5839 5838
5861 5861 5862 5862 5862 5862 5861 5861 5861 5860 5860 5859 5858 5858 5857 5857 5856 5856 5855 5854 5853 5853 5852 5852 5852 5852 5851 5851 5850 5849 5849 5848 5847 5846 5845 5844 5843 5842 5840 5839 5839 5838 5837
5861 5860 5860 5861 5861 5862 5862 5861 5860 5860 5860 5860 5860 5859 5858 5858 5857 5857 5856 5855 5854 5853 5852 5852 5852 5852 5851 5851 5850 5849 5848 5848 5847 5846 5845 5844 5842 5841 5839 5838 5837 5836 5835
5860 5859 5860 5860 5860 5861 5861 5861 5861 5860 5861 5860 5860 5859 5858 5857 5857 5856 5855 5854 5854 5853 5852 5851 5850 5850 5850 5849 5848 5847 5846 5846 5845 5844 5843 5841 5840 5839 5838 5836 5835 5833 5832
5858 5858 5858 5858 5858 5859 5859 5860 5860 5860 5860 5859 5859 5858 5857 5856 5856 5855 5854 5854 5853 5852 5851 5850 5849 5848 5848 5847 5846 5845 5844 5843 5842 5842 5840 5839 5838 5837 5835 5833 5832 5831 5829
5856 5857 5857 5857 5857 5857 5857 5858 5858 5858 5858 5857 5857 5857 5856 5856 5855 5854 5854 5853 5852 5851 5850 5849 5848 5847 5846 5845 5844 5843 5842 5841 5839 5838 5837 5835 5834 5833 5831 5830 5829 5827 5825
5854 5855 5855 5856 5856 5856 5856 5856 5856 5856 5855 5855 5855 5855 5855 5854 5853 5853 5852 5851 5850 5849 5848 5847 5846 5845 5844 5843 5842 5841 5839 5838 5837 5834 5833 5831 5830 5828 5828 5826 5825 5823 5821
5852 5852 5853 5853 5854 5854 5854 5854 5854 5853 5853 5854 5853 5852 5852 5851 5851 5850 5849 5849 5847 5846 5846 5845 5845 5843 5842 5840 5840 5839 5837 5835 5833 5831 5830 5827 5825 5823 5821 5819 5818 5816 5815
5848 5848 5849 5850 5851 5852 5852 5851 5851 5851 5850 5851 5851 5850 5849 5848 5848 5847 5846 5846 5845 5844 5843 5842 5841 5839 5838 5836 5834 5833 5832 5830 5827 5825 5823 5821 5819 5818 5816 5814 5811 5809 5807
5845 5846 5846 5847 5847 5848 5849 5848 5848 5847 5847 5847 5847 5847 5846 5845 5844 5843 5843 5842 5840 5840 5839 5838 5837 5835 5834 5832 5830 5828 5826 5824 5822 5819 5816 5814 5812 5810 5808 5806 5804 5802 5799
5841 5842 5843 5844 5845 5845 5845 5845 5844 5844 5843 5843 5843 5843 5842 5841 5840 5839 5838 5837 5836 5835 5834 5832 5831 5829 5827 5825 5823 5821 5819 5816 5814 5812 5809 5807 5803 5801 5799 5797 5794 5792 5790
5838 5838 5839 5840 5840 5841 5841 5840 5841 5840 5839 5839 5838 5837 5836 5835 5834 5833 5832 5832 5831 5830 5828 5826 5825 5823 5821 5818 5815 5813 5811 5808 5805 5803 5800 5798 5795 5792 5789 5787 5785 5782 5780
5834 5834 5835 5835 5835 5836 5836 5837 5836 5835 5834 5833 5832 5832 5831 5830 5829 5828 5827 5826 5825 5823 5822 5820 5818 5816 5814 5811 5808 5806 5803 5800 5797 5795 5792 5789 5786 5783 5780 5777 5774 5771 5769
5830 5830 5830 5830 5830 5831 5831 5831 5831 5830 5829 5827 5826 5825 5824 5824 5823 5822 5820 5819 5818 5816 5815 5813 5811 5808 5806 5804 5801 5798 5795 5792 5789 5786 5783 5779 5776 5772 5769 5766 5764 5761 5759
5825 5825 5825 5825 5825 5825 5825 5825 5824 5824 5823 5821 5820 5819 5819 5818 5817 5815 5813 5812 5810 5809 5807 5805 5803 5801 5798 5796 5793 5789 5786 5784 5779 5776 5772 5768 5764 5760 5757 5754 5752 5750 5747
5819 5819 5819 5819 5819 5818 5818 5818 5817 5817 5816 5815 5813 5812 5811 5811 5809 5808 5806 5804 5802 5800 5798 5795 5793 5791 5789 5786 5783 5780 5776 5773 5769 5765 5761 5757 5753 5748 5745 5743 5740 5737 5734
5814 5814 5814 5813 5812 5812 5811 5811 5810 5809 5808 5807 5807 5806 5804 5802 5801 5799 5797 5795 5793 5791 5788 5786 5783 5780 5778 5775 5773 5769 5766 5762 5759 5756 5753 5747 5742 5737 5734 5733 5730 5726 5722
5806 5807 5807 5807 5806 5805 5804 5803 5802 5801 5801 5800 5799 5797 5795 5793 5791 5788 5786 5785 5783 5781 5778 5776 5773 5771 5768 5765 5762 5758 5755 5750 5747 5743 5740 5735 5730 5725 5721 5720 5717 5712 5709
5797 5798 5798 5798 5798 5797 5796 5794 5793 5792 5791 5790 5788 5787 5785 5783 5780 5777 5774 5773 5771 5768 5765 5762 5760 5758 5755 5752 5749 5746 5742 5739 5734 5730 5726 5722 5717 5711 5708 5705 5701 5698 5694